Location: 476 Grange Obs.
(45.1421°N, 7.1417°E)
Time: 15:09:51
(UTC+01:00)

Envisat - Pass Details

Date: 23 October 2019
Orbit: 764 x 766 km, 98.1° (Epoch: 13 November)

Event Time Altitude Azimuth Distance (km) Brightness Sun altitude
Rises 20:58:22 0° 214° (SSW) 3,221 6.5 -26.1°
Reaches altitude 10° 21:01:42 10° 237° (WSW) 2,301 6.0 -26.7°
Maximum altitude 21:04:32 15° 271° (W) 1,985 6.0 -27.2°
Drops below altitude 10° 21:07:22 10° 306° (NW) 2,310 6.3 -27.7°
Sets 21:10:45 0° 329° (NNW) 3,242 6.8 -28.3°
